Regional Weather Roundup
Issued by NWS

Home | Current Version | Previous Version | Text Only | Print | Product List | Glossary Off
Versions: 1 2 3 4 5 6 7 8 9 10 11 12 13 14 15 16 17 18 19 20 21 22 23 24 25 26 27 28 29 30 31 32 33 34 35 36 37 38 39 40 41 42 43 44 45 46 47 48 49 50

000
ASUS44 KMEG 191900
RWRTN
TENNESSEE HOURLY STATE WEATHER ROUNDUP
NATIONAL WEATHER SERVICE MEMPHIS TN
200 PM CDT FRI SEP 19 2014

TNZ002-004-019-021-049-052-054-088>092-192000-
WEST TENNESSEE

CITY           SKY/WX    TMP DP  RH WIND       PRES   REMARKS
MEMPHIS INTL   MOSUNNY   84  66  54 CALM      30.02F
NWS MEMPHIS      N/A     84 N/A N/A MISG        N/A
JACKSON        MOSUNNY   82  64  54 E3        30.03F
DYERSBURG      SUNNY     81  59  47 NE7       30.03F
PARIS          SUNNY     81  61  50 E5        30.04F
$$

TNZ008-025-027-028-033-062-065-066-192000-
NORTH MIDDLE TENNESSEE

CITY           SKY/WX    TMP DP  RH WIND       PRES   REMARKS
NASHVILLE      MOSUNNY   83  61  47 VRB6      30.05F
CLARKSVILLE    SUNNY     81  59  47 SE5       30.03F
COOKEVILLE     PTSUNNY   82  64  54 S3        30.07F
CROSSVILLE     MOSUNNY   77  57  50 S3        30.12F
$$

TNZ061-075-076-078-094-096-097-192000-
SOUTH MIDDLE TENNESSEE

CITY           SKY/WX    TMP DP  RH WIND       PRES   REMARKS
WINCHESTER     SUNNY     82  64  54 SE9       30.06F
$$

TNZ017-018-042-046-047-192000-
NORTHEAST TENNESSEE

CITY           SKY/WX    TMP DP  RH WIND       PRES   REMARKS
TRI CITIES     MOSUNNY   81  54  39 S10       30.11F
ELIZABETHTON   CLOUDY    73  61  64 SE8       30.14S
$$

TNZ012-013-036-069-073-074-192000-
CENTRAL EAST TENNESSEE

CITY           SKY/WX    TMP DP  RH WIND       PRES   REMARKS
KNOXVILLE      MOSUNNY   82  60  47 VRB3      30.06F
OAK RIDGE      MOSUNNY   82  60  47 S7        30.09F
GATLINBURG     CLEAR     82  59  44 CALM      30.07F
$$

TNZ083-085-099-192000-
SOUTHEAST TENNESSEE

CITY           SKY/WX    TMP DP  RH WIND       PRES   REMARKS
CHATTANOOGA    PTSUNNY   83  63  50 VRB5      30.06F
$$

SKY/WX REPORTED AS FAIR MEANS FEW OR NO CLOUDS BELOW
12 THOUSAND FEET.




USA.gov is the U.S. government's official web portal to all federal, state and local government web resources and services.